| DS18B20 | SHTC3 | PZEM-004T | WiFi | ||||||||
|---|---|---|---|---|---|---|---|---|---|---|---|
| ID | Date d/m/Y & Time | data1 สูง | data2 ต่ำ | data3 นอก | temp pcb | hum pcb | Volt | Amp | Watt | rssi | Time |
| 10267 | 07/08/2026 02:47:12 | 30.6  | 30.8  | 28.2  | 31.6  | 68.7  | 226.3  | 0.04  | 4.4  | -77  | 02:47 |
| 10266 | 07/08/2026 02:42:29 | 30.7  | 30.8  | 28.2  | 31.5  | 68.7  | 224.4  | 0.04  | 4.4  | -77  | 02:42 |
| 10265 | 07/08/2026 02:37:45 | 30.7  | 30.8  | 28.4  | 31.6  | 68.5  | 230.0  | 0.04  | 4.4  | -76  | 02:37 |
| 10264 | 07/08/2026 02:33:01 | 30.8  | 30.9  | 28.4  | 31.8  | 68.6  | 228.6  | 0.04  | 4.4  | -77  | 02:33 |
| 10263 | 07/08/2026 02:28:18 | 30.8  | 30.9  | 28.2  | 31.5  | 68.5  | 229.7  | 0.04  | 4.4  | -76  | 02:28 |
| 10262 | 07/08/2026 02:23:35 | 30.8  | 30.9  | 28.2  | 31.8  | 68.5  | 228.6  | 0.04  | 4.4  | -75  | 02:23 |
| 10261 | 07/08/2026 02:18:52 | 30.8  | 30.9  | 28.4  | 31.7  | 68.4  | 230.2  | 0.04  | 4.4  | -76  | 02:18 |
| 10260 | 07/08/2026 02:14:08 | 30.8  | 30.9  | 28.4  | 31.8  | 68.4  | 228.0  | 0.04  | 4.4  | -77  | 02:14 |
| 10259 | 07/08/2026 02:09:25 | 30.9  | 30.9  | 28.4  | 31.8  | 68.5  | 230.1  | 0.04  | 4.4  | -76  | 02:09 |
| 10258 | 07/08/2026 02:04:41 | 30.9  | 31.0  | 28.4  | 31.8  | 68.3  | 226.8  | 0.04  | 4.4  | -76  | 02:04 |
| 10257 | 07/08/2026 01:59:58 | 30.9  | 31.0  | 28.5  | 31.8  | 68.4  | 230.1  | 0.04  | 4.4  | -77  | 01:59 |
| 10256 | 07/08/2026 01:55:15 | 30.9  | 31.0  | 28.5  | 32.0  | 68.3  | 227.8  | 0.04  | 4.4  | -77  | 01:55 |
| 10255 | 07/08/2026 01:50:32 | 30.9  | 31.1  | 28.5  | 31.8  | 68.4  | 229.6  | 0.04  | 4.4  | -73  | 01:50 |
| 10254 | 07/08/2026 01:45:48 | 31.0  | 31.1  | 28.5  | 32.0  | 68.4  | 227.9  | 0.04  | 4.4  | -77  | 01:45 |
| 10253 | 07/08/2026 01:41:03 | 31.0  | 31.1  | 28.5  | 32.1  | 68.3  | 230.7  | 0.04  | 4.4  | -76  | 01:41 |
| 10252 | 07/08/2026 01:36:20 | 31.0  | 31.1  | 28.5  | 31.9  | 68.4  | 228.4  | 0.04  | 4.4  | -76  | 01:36 |
| 10251 | 07/08/2026 01:31:36 | 31.1  | 31.1  | 28.5  | 32.1  | 68.3  | 228.3  | 0.04  | 4.4  | -77  | 01:31 |
| 10250 | 07/08/2026 01:26:53 | 31.1  | 31.1  | 28.5  | 32.2  | 68.3  | 228.0  | 0.04  | 4.4  | -75  | 01:26 |
| 10249 | 07/08/2026 01:22:10 | 31.1  | 31.2  | 28.5  | 32.0  | 68.3  | 226.0  | 0.04  | 4.4  | -73  | 01:22 |
| 10248 | 07/08/2026 01:17:26 | 31.1  | 31.2  | 28.5  | 32.0  | 68.3  | 226.6  | 0.04  | 4.4  | -76  | 01:17 |
| 10247 | 07/08/2026 01:12:42 | 31.1  | 31.2  | 28.5  | 32.1  | 68.2  | 225.8  | 0.04  | 4.4  | -76  | 01:12 |
| 10246 | 07/08/2026 01:07:59 | 31.1  | 31.2  | 28.5  | 32.1  | 68.3  | 227.1  | 0.04  | 4.4  | -77  | 01:07 |
| 10245 | 07/08/2026 01:03:16 | 31.2  | 31.2  | 28.5  | 32.2  | 68.2  | 226.9  | 0.04  | 4.4  | -75  | 01:03 |
| 10244 | 07/08/2026 00:58:33 | 31.2  | 31.3  | 28.5  | 32.1  | 68.2  | 228.8  | 0.04  | 4.4  | -76  | 00:58 |